DELTA 1 DEB

Satellite information

Favourite Embed

Satellite Type and Status

DEBRISIN ORBIT

Key statistics

Satellite DELTA 1 DEB at a glance.

Uptime

18430

Days in orbit

Revolutions

≈ 14.7

Per day

Orbit

SSO

Sun Synchronous Orbit

Inclination

98.1

Latest

Satellite identification and parameters

Extended collection of information and parameters for DELTA 1 DEB.

Object identification

Identified? True

Debris? True

Object name: DELTA 1 DEB

International designator: 1975-004AH

Object number (NORAD): 8951

Object ID (CCSDS): 8951

Country: UNITED STATES OF AMERICA (US)

Current information (Y/N): Y

RCS size: SMALL

Orbital parameters

Period: 98.032 minutes

Inclination: 98.0506 deg

SMA: 7042.68 km

Apoapsis: 685.455 km

Periapsis: 643.636 km

RAAN: 110.3905 deg

Eccentricy: 0.002969

Argument of periapsis: 155.1111 deg

Mean anomaly: 205.1534 deg

Mean motion: 14.68912048 rev/day

Mean motion (dot): 0.00000854 rev/day2

B* drag term: 0.00015355 1/REarth

Two-line elements (TLE)

Creation date: July 6, 2025, 6:05 p.m.

Reference frame: TEME

Reference center: EARTH

Epoch: July 6, 2025, 7:40 a.m. UTC

TLE line 0: 0 DELTA 1 DEB

TLE line 1: 1 08951U 75004AH 25187.31989805 .00000854 00000-0 15355-3 0 9994

TLE line 2: 2 08951 98.0506 110.3905 0029690 155.1111 205.1534 14.68912048600518

Live tracking on map

Real-time ground track for satellite DELTA 1 DEB.

In-orbit conjunctions

A list of the most updated potential collisions computed for object DELTA 1 DEB.

Target Orbit TCA Probability of collision Miss distance Type
CZ-6A DEB SSO 2024-11-11 03:43:20 0.0002250382 703.0 (m) DEBRIS
COSMOS 2251 DEB LEO 2024-08-16 04:55:28 0.0001657723 105.0 (m) DEBRIS

Associated space launch

Earth observation satellite

DELTA 1 DEB was lifted into orbit during the mission ‘Delta 2910 | Landsat 2’, on board a Delta 2910 space rocket.

The launch took place on Jan. 22, 1975, 5:55 p.m. from Space Launch Complex 2W.

For more information about the launch, click the button.

Launch to space Delta 2910 | Landsat 2
Delta 2910 | Landsat 2

Agency: N/A

Status: Launch Successful

Launch date: Jan. 22, 1975, 5:55 p.m. UTC

Rocket: Delta 2910

Launch pad: Space Launch Complex 2W

Location: Vandenberg SFB, CA, USA

...

Latest news about this satellite

There are no fresh news available about this satellite. Check back as we update our databases every day.


Newsletter sign-up

Weekly statistics, charts and insights to help you stay on top of the space industry.